Location: Unspecified
(0.0000°N, 0.0000°E)
Time: 14:03:29
(UTC+01:00)

Transit 2A - Visible Passes

Search period start: 11 February 2016 00:00
Search period end: 21 February 2016 00:00
Orbit: 599 x 961 km, 66.7° (Epoch: 10 February)

Date Brightness Start Highest point End Pass type
(mag) Time Alt. Az. Time Alt. Az. Time Alt. Az.
11 Feb 9.4 21:07:43 10° W 21:10:50 14° WSW 21:14:00 10° SW visible
12 Feb 8.9 20:32:11 10° WNW 20:36:52 23° WSW 20:41:43 10° SSW visible
13 Feb 8.2 19:57:26 10° NW 20:02:56 36° WSW 20:08:41 10° S visible
15 Feb 8.1 06:17:38 10° SSE 06:21:24 25° ESE 06:25:01 10° NE visible
16 Feb 8.9 05:45:03 10° SE 05:47:28 14° ESE 05:49:49 10° E visible
16 Feb 9.8 20:02:01 10° W 20:04:25 12° WSW 20:06:52 10° SW visible
18 Feb 5.4 06:18:08 10° SSW 06:22:41 80° WNW 06:27:00 10° NNE visible
19 Feb 6.3 05:44:22 10° S 05:48:48 54° ESE 05:53:02 10° NNE visible
20 Feb 7.4 05:10:58 10° S 05:14:54 29° ESE 05:18:41 10° NE visible
